User: anonymous   Login
Location: South Tamworth Observatory
(43.8246°N, 71.3026°W)
Time: 14:16:43
(UTC-05:00)
Language:

Cosmos 1844 - Orbit

View from above orbital plane
View from above orbital plane
View from above satellite
View from above satellite

Ground track
Ground track

The orbit data is extracted from the following two-line orbital elements,

1 17973U 87041A   15058.95956251 -.00000294  00000-0 -12876-3 0  9992
2 17973 070.8970 244.3138 0033312 303.5640 161.6787 14.13974635434378
Epoch (UTC): 27 February 2015 23:01:46
Eccentricity: 0.0033312
inclination: 70.8970°
perigee height: 822 km
apogee height: 870 km
right ascension of ascending node: 244.3138°
argument of perigee: 303.5640°
revolutions per day: 14.13974635
mean anomaly at epoch: 161.6787°
orbit number at epoch: 43437

The dashed part of the orbit path shows where the satellite is in the earth's shadow,  

DLR